Regional Weather Roundup
Issued by NWS Sterling, VA

Home | Current Version | Previous Version | Graphics & Text | Print | Product List | Glossary On
Versions: 1 2 3 4 5 6 7 8 9 10 11 12 13 14 15 16 17 18 19 20 21 22 23 24 25 26 27 28 29 30 31 32 33 34 35 36 37 38 39 40 41 42 43 44 45 46 47 48 49 50
144
ASUS41 KLWX 160411
RWRLWX

REGIONAL WEATHER ROUNDUP
NATIONAL WEATHER SERVICE BALTIMORE MD/WASHINGTON DC
1100 PM EST MON JAN 15 2018

Note: "FAIR" indicates few or no clouds below 12,000 feet
with no significant weather and/or obstructions to visibility.
 TC=TEMPERATURE CELSIUS

 * =Non NWS site. Station does not report precipitation (e.g. rain,
    snow, etc.), thunder, or fog.

DCZ001-MDZ009-015-VAZ040>042-051-053>054-160500-
WASHINGTON METRO

CITY           SKY/WX    TMP DP  RH WIND       PRES   REMARKS
WASHINGTON NAT CLOUDY    31  27  85 S5        30.51R WCI  26
DULLES         CLOUDY    25  23  92 CALM      30.48R
ANDREWS AFB    CLOUDY    28  21  76 S3        30.47S
FT BELVOIR     CLOUDY    30  27  86 SE3       30.50R
QUANTICO       CLOUDY    31  27  85 SE6       30.51S WCI  25
COLLEGE PARK*  CLOUDY    28  21  74 CALM      30.50R
LEESBURG*      CLOUDY    27  23  86 CALM      30.49R
MANASSAS*      FAIR      21  19  92 CALM      30.49R
GAITHERSBURG*  FLURRIES  28  24  85 SE5       30.47R WCI  23

$$

MDZ006>007-011-014-160500-
BALTIMORE METRO

CITY           SKY/WX    TMP DP  RH WIND       PRES   REMARKS
BWI AIRPORT    CLOUDY    28  21  75 CALM      30.48F
MD SCIENCE CTR   N/A     31  21  66 MISG      30.49F
MARTIN STATE   CLOUDY    30  23  74 CALM      30.51S
ANNAPOLIS      CLOUDY    30  23  75 NW3       30.49F
FORT MEADE*    CLOUDY    28  23  80 CALM      30.51S

$$

MDZ012-015-019>023-160500-
MARYLAND EASTERN SHORE

CITY           SKY/WX    TMP DP  RH WIND       PRES   REMARKS
OCEAN CITY     FAIR      33  32  96 N5        30.45F WCI  29
SALISBURY      CLOUDY    29  28  96 NW3       30.46F FOG
BAY BRIDGE AP* CLOUDY    28  21  74 NW6       30.49F WCI  22
CAMBRIDGE*       N/A     28  25  86 NW5       30.48S WCI  23
EASTON*        CLOUDY    29  23  77 CALM      30.52S

$$

MDZ017>025-160500-
SOUTHERN MARYLAND

CITY           SKY/WX    TMP DP  RH WIND       PRES   REMARKS
PATUXENT RIVER CLOUDY    30  26  85 NW5       30.49R WCI  25
ST INIGOES     CLOUDY    31  25  78 NW3       30.48S
LEONARDTOWN*   CLOUDY    28  27  93 CALM      30.51R

$$

MDZ003>005-160500-
NORTH CENTRAL MARYLAND

CITY           SKY/WX    TMP DP  RH WIND       PRES   REMARKS
FREDERICK*     CLOUDY    28  19  69 CALM      30.52R
HAGERSTOWN APT CLOUDY    24  18  77 CALM      30.44S
WESTMINSTER*   CLOUDY    27  23  86 S3        30.45R

$$

MDZ501>502-160500-
WESTERN MARYLAND

CITY           SKY/WX    TMP DP  RH WIND       PRES   REMARKS
OAKLAND*       CLOUDY    18  10  73 S8        30.21S WCI   7
CUMBERLAND*    CLOUDY   N/A N/A N/A CALM      30.45S

$$

VAZ025>031-160500-
SHENANDOAH VALLEY

CITY           SKY/WX    TMP DP  RH WIND       PRES   REMARKS
WINCHESTER*      N/A    N/A N/A N/A MISG        N/A
FRONT ROYAL*   MOCLDY    23  18  80 MISG      30.43R
LURAY*         FAIR      25  19  80 CALM      30.43R
NEW MARKET*    FAIR      22  15  74 NE3       30.42R
STAUNTON*      FAIR      26  11  55 CALM      30.43R
WAYNESBORO*    FAIR      26   9  48 CALM      30.39S

$$

WVZ021-048>050-054>055-160500-
EASTERN WEST VIRGINIA PANHANDLE

CITY           SKY/WX    TMP DP  RH WIND       PRES   REMARKS
MARTINSBURG    CLOUDY    25  19  78 CALM      30.44R
PETERSBURG*    CLOUDY    21  17  83 CALM      30.39F

$$

VAZ036>039-050-160500-
CENTRAL FOOTHILLS

CITY           SKY/WX    TMP DP  RH WIND       PRES   REMARKS
CHARLOTTESVILL FAIR      26  14  60 CALM      30.45S
CULPEPER*      FAIR      22  17  81 CALM      30.49S
ORANGE*        FAIR      21  18  86 CALM      30.47S
GORDONSVILLE*  FAIR      22  17  83 CALM      30.47S
WARRENTON*     FAIR      22  17  82 CALM      30.47S

$$

VAZ055>057-160500-
NORTH AND CENTRAL PIEDMONT

CITY           SKY/WX    TMP DP  RH WIND       PRES   REMARKS
FREDERICKSBRG* MOCLDY    25  22  89 CALM      30.49F
STAFFORD*      CLOUDY    25  24  98 CALM      30.53S

$$

NCZ024-NYZ072-PAZ021-071-VAZ022-071-160500-
OTHER REGIONAL OBSERVATIONS

CITY           SKY/WX    TMP DP  RH WIND       PRES   REMARKS
NEW YORK CITY  CLOUDY    25  18  74 NE5       30.52F WCI  19
PHILADELPHIA   CLOUDY    29  22  75 NE3       30.50S
PITTSBURGH     MOCLDY    24  24 100 CALM      30.28R
ROANOKE        MOCLDY    28   9  44 CALM      30.43F
RICHMOND       CLOUDY    28  25  88 E3        30.49S FOG
RALEIGH        FAIR      25  17  72 CALM      30.47R

$$

ANZ530>537-160500-
MARINE OBSERVATIONS

STATION/POSITION TIME  TEMP    WIND        PRES
                       AIR SEA DIR/SP/G
                 (UTC) (F)     (DEG/KT/KT) (MB)
THOMAS PT LIGHT  0400   28 32  340/  5/  6   N/A
BALT KEY BRIDGE  0348   29      20/  2/  2 1032.8F
COVE POINT       0348   29     350/  6/  9 1033.1R
LEWISETTA        0336   30 32   10/  4/  5 1032.4R
SOLOMONS ISLAND  0348   30 34  310/  3/  5 1032.3R
PINEY POINT      0336           10/  5/  6   N/A

$$





USA.gov is the U.S. government's official web portal to all federal, state and local government web resources and services.